Location: Penzberg
(47.7615°N, 11.3159°E)
Time: 09:51:45
(UTC+01:00)

ISS - Pass Details

Date: 09 January 2018
Orbit: 401 x 406 km, 51.6° (Epoch: 17 January)

Event Time Altitude Azimuth Distance (km) Brightness Sun altitude
Exits shadow 05:50:18 41° 34° (NNE) 599 -2.9 -21.3°
Drops below altitude 10° 05:53:03 10° 84° (E) 1,466 0.1 -20.9°
Sets 05:55:12 0° 91° (E) 2,326 1.5 -20.5°
